Weather History for KCDJ - May, 2013

Change the Weather History Date:

Thursday, May 23, 2013

  Actual Average (KIRK) Record (KIRK)
Temperature  
Mean Temperature 60 °F 64 °F  
Max Temperature 69 °F 75 °F 90 °F (1921)
Min Temperature 51 °F 54 °F 33 °F (1963)
Degree Days  
Heating Degree Days 5 3  
Month to date heating degree days 133  
Since 1 July heating degree days 5823  
Cooling Degree Days 0 2  
Month to date cooling degree days 32  
Year to date cooling degree days 39  
Growing Degree Days 10 (Base 50)    
Moisture  
Dew Point 50 °F    
Average Humidity 70    
Maximum Humidity 86    
Minimum Humidity 49    
Precipitation  
Precipitation 0.00 in 0.17 in 1.31 in (1944)
Month to date precipitation 3.65  
Year to date precipitation 12.84  
Sea Level Pressure  
Sea Level Pressure 30.11 in    
Wind  
Wind Speed 6 mph (North)    
Max Wind Speed 9 mph    
Max Gust Speed -    
T = Trace of Precipitation, MM = Missing Value Source: NWS Daily Summary

Daily Weather History Graph

Daily Weather History Graph

Search for Another Location

Airport or City:

Trip Planner

Search our weather history database for the weather conditions in past years. The results will help you decide how hot, cold, wet, or windy it might be!

Date:

Astronomy

May. 23, 2013 Rise Set
Actual Time 5:52 AM CDT 8:29 PM CDT
Civil Twilight 5:21 AM CDT 9:01 PM CDT
Nautical Twilight 4:42 AM CDT 9:40 PM CDT
Astronomical Twilight 3:58 AM CDT 10:24 PM CDT
Moon 7:03 PM CDT 4:38 AM CDT
Length of Visible Light 15h 39m
Length of Day
14h 36m
Waxing Gibbous, 97% of the Moon is Illuminated
May 23
Waxing Gibbous
May 24
Full
May 31
Last Quarter
Jun 8
New
Jun 16
First Quarter

Hourly Weather History & Observations

Time (CDT) Temp. Dew Point Humidity Pressure Visibility Wind Dir Wind Speed Gust Speed Precip Events Conditions
12:52 AM 59.0 °F 48.9 °F 69% 29.94 in - WNW 6.9 mph - N/A   Unknown
1:52 AM 57.9 °F 48.9 °F 72% 29.94 in - Variable 5.8 mph - N/A   Unknown
2:52 AM 57.9 °F 48.9 °F 72% 29.95 in - WNW 5.8 mph - N/A   Unknown
3:52 AM 57.0 °F 48.0 °F 72% 29.96 in - NW 8.1 mph - N/A   Unknown
4:52 AM 57.0 °F 48.0 °F 72% 29.99 in - WNW 8.1 mph - N/A   Unknown
5:52 AM 57.0 °F 48.9 °F 74% 30.01 in - NW 6.9 mph - N/A   Unknown
6:52 AM 57.0 °F 48.9 °F 74% 30.05 in - Variable 6.9 mph - N/A   Unknown
7:52 AM 59.0 °F 51.1 °F 75% 30.06 in - NNW 8.1 mph - N/A   Unknown
8:52 AM 60.1 °F 51.1 °F 72% 30.09 in - North 9.2 mph - N/A   Unknown
9:52 AM 59.0 °F 51.1 °F 75% 30.12 in - NNW 8.1 mph - N/A   Unknown
10:52 AM 59.0 °F 51.1 °F 75% 30.12 in - North 9.2 mph - N/A   Unknown
11:52 AM 61.0 °F 51.1 °F 70% 30.14 in - Variable 6.9 mph - N/A   Unknown
12:52 PM 62.1 °F 52.0 °F 70% 30.17 in - Variable 5.8 mph - N/A   Unknown
1:52 PM 63.0 °F 53.1 °F 70% 30.18 in - NNE 5.8 mph - N/A   Unknown
2:52 PM 64.9 °F 52.0 °F 63% 30.17 in - NNE 6.9 mph - N/A   Unknown
3:52 PM 66.0 °F 52.0 °F 60% 30.18 in - ESE 3.5 mph - N/A   Unknown
4:52 PM 66.9 °F 52.0 °F 59% 30.19 in - Calm Calm - N/A   Unknown
5:52 PM 66.0 °F 50.0 °F 56% 30.19 in - ENE 5.8 mph - N/A   Unknown
6:52 PM 68.0 °F 48.0 °F 49% 30.19 in - ENE 4.6 mph - N/A   Unknown
7:52 PM 66.0 °F 46.9 °F 50% 30.19 in - ENE 3.5 mph - N/A   Unknown
8:52 PM 57.9 °F 50.0 °F 75% 30.19 in - Calm Calm - N/A   Unknown
9:52 PM 54.0 °F 50.0 °F 86% 30.22 in - Calm Calm - N/A   Unknown
10:52 PM 52.0 °F 48.0 °F 86% 30.25 in - Calm Calm - N/A   Unknown
11:52 PM 51.1 °F 46.9 °F 86% 30.25 in - Calm Calm - N/A   Unknown